{"data":{"norad_id":2826,"intl_designator":"1967-053A","name":"OPS 5712 (P/L 160)","alt_names":[],"object_type":"PAYLOAD","status":"ACTIVE","operator":null,"country":"US","launch_date":"1967-05-31","launch_site_code":"AFWTR","launch_vehicle":null,"mission":null,"orbit_class":"UNKNOWN","rcs_meters":0.403,"size_class":null,"mass_kg":null,"dimensions":null,"purposes":["military"],"wikipedia_slug":null,"has_3d_model":false,"image_url":null,"decayed_at":null,"tle_current":{"epoch":"2026-09-20T04:27:59.751936Z","epoch_age_seconds":38308,"freshness":"FRESH","line1":"1 02826U 67053A   26263.18610824  .00004117  00000+0  56982-3 0  9993","line2":"2 02826  69.9161 165.2448 0003848 269.0330  91.0377 14.78769283 80277","mean_motion":14.78769283,"eccentricity":0.0003848,"inclination_deg":69.9161,"raan_deg":165.2448,"arg_perigee_deg":269.033,"mean_anomaly_deg":91.0377,"bstar":0.00056982,"rev_number":8027,"period_min":97.378273714115,"perigee_km":630.51363731386,"apogee_km":635.90957119969,"semimajor_km":7011.3486042568,"source":"CELESTRAK","updated_at":"2026-09-20T09:00:47.875966Z"}}}